| time (UTC) | temp F | wind direction | speed MPH | gust MPH | rain 1hr in | rain 24hr in | rain mn in | humidity % | barometer mb |
| 20260508144538 | 52 | 128 | 1.0 | 4.0 | 0.00 | 0.01 | 0.01 | 74 | 1009.8 |
| 20260508143049 | 51 | 133 | 3.0 | 8.0 | 0.00 | 0.01 | 0.01 | 74 | 1009.8 |
| 20260508141536 | 50 | 143 | 4.0 | 10.0 | 0.00 | 0.01 | 0.01 | 74 | 1009.7 |
| 20260508140135 | 49 | 208 | 5.0 | 10.0 | 0.00 | 0.01 | 0.01 | 75 | 1009.4 |
| 20260508134647 | 49 | 220 | 7.0 | 11.0 | 0.00 | 0.01 | 0.01 | 73 | 1009.4 |
| 20260508133101 | 49 | 179 | 7.0 | 11.0 | 0.00 | 0.01 | 0.01 | 73 | 1009.6 |
| 20260508131550 | 49 | 318 | 4.0 | 9.0 | 0.00 | 0.01 | 0.01 | 70 | 1009.1 |
| 20260508130048 | 48 | 295 | 4.0 | 9.0 | 0.00 | 0.01 | 0.01 | 72 | 1009.0 |
| 20260508124548 | 48 | 314 | 6.0 | 9.0 | 0.00 | 0.01 | 0.01 | 74 | 1008.9 |
| 20260508123047 | 47 | 261 | 5.0 | 10.0 | 0.01 | 0.01 | 0.01 | 76 | 1009.1 |
| 20260508121546 | 47 | 299 | 4.0 | 11.0 | 0.01 | 0.01 | 0.01 | 77 | 1009.4 |
| 20260508120045 | 47 | 331 | 9.0 | 19.0 | 0.01 | 0.01 | 0.01 | 76 | 1009.9 |
| 20260508114540 | 48 | 342 | 15.0 | 22.0 | 0.01 | 0.01 | 0.01 | 76 | 1010.4 |
| 20260508113037 | 46 | 272 | 5.0 | 6.0 | 0.00 | 0.00 | 0.00 | 82 | 1010.1 |
| 20260508111534 | 46 | 259 | 3.0 | 6.0 | 0.00 | 0.00 | 0.00 | 82 | 1009.5 |
| 20260508110033 | 45 | 259 | 1.0 | 4.0 | 0.00 | 0.00 | 0.00 | 83 | 1008.8 |
| 20260508104536 | 45 | 21 | 0.0 | 3.0 | 0.00 | 0.00 | 0.00 | 84 | 1008.9 |
| 20260508103031 | 45 | 21 | 0.0 | 2.0 | 0.00 | 0.00 | 0.00 | 84 | 1008.6 |
| 20260508101535 | 45 | 21 | 0.0 | 0.0 | 0.00 | 0.00 | 0.00 | 84 | 1008.6 |
| 20260508100035 | 45 | 21 | 2.0 | 5.0 | 0.00 | 0.00 | 0.00 | 85 | 1008.7 |
| 20260508094528 | 45 | 29 | 1.0 | 4.0 | 0.00 | 0.00 | 0.00 | 85 | 1008.7 |
| 20260508093034 | 45 | 29 | 4.0 | 8.0 | 0.00 | 0.00 | 0.00 | 85 | 1008.9 |
| 20260508091525 | 45 | 43 | 7.0 | 10.0 | 0.00 | 0.00 | 0.00 | 86 | 1008.6 |
| 20260508090024 | 45 | 195 | 0.0 | 1.0 | 0.00 | 0.00 | 0.00 | 84 | 1007.9 |
| 20260508084519 | 45 | 195 | 1.0 | 3.0 | 0.00 | 0.00 | 0.00 | 83 | 1007.9 |
| 20260508083016 | 46 | 195 | 2.0 | 4.0 | 0.00 | 0.00 | 0.00 | 82 | 1008.0 |
| 20260508081516 | 46 | 195 | 0.0 | 6.0 | 0.00 | 0.00 | 0.00 | 82 | 1008.2 |
| 20260508080028 | 46 | 27 | 2.0 | 4.0 | 0.00 | 0.00 | 0.00 | 81 | 1008.5 |
| 20260508074508 | 47 | 27 | 0.0 | 2.0 | 0.00 | 0.00 | 0.00 | 81 | 1008.9 |
| 20260508073006 | 47 | 27 | 3.0 | 5.0 | 0.00 | 0.00 | 0.00 | 81 | 1009.2 |
| 20260508071504 | 47 | 27 | 4.0 | 5.0 | 0.00 | 0.00 | 0.00 | 78 | 1009.5 |
| 20260508070104 | 48 | 32 | 5.0 | 9.0 | 0.00 | 0.00 | 0.00 | 77 | 1009.5 |
| 20260508064600 | 49 | 10 | 5.0 | 8.0 | 0.00 | 0.00 | 0.00 | 76 | 1009.4 |
| 20260508063054 | 50 | 51 | 4.0 | 5.0 | 0.00 | 0.00 | 0.00 | 74 | 1009.3 |
| 20260508061549 | 51 | 51 | 3.0 | 5.0 | 0.00 | 0.00 | 0.00 | 72 | 1009.3 |
| 20260508060046 | 52 | 17 | 5.0 | 10.0 | 0.00 | 0.00 | 0.00 | 69 | 1009.2 |
| 20260508054549 | 53 | 47 | 6.0 | 11.0 | 0.00 | 0.00 | 0.00 | 67 | 1009.4 |
| 20260508053053 | 53 | 55 | 0.0 | 7.0 | 0.00 | 0.00 | 0.00 | 68 | 1009.3 |
| 20260508051549 | 53 | 141 | 2.0 | 8.0 | 0.00 | 0.00 | 0.00 | 64 | 1009.0 |
| 20260508050054 | 53 | 51 | 8.0 | 11.0 | 0.00 | 0.00 | 0.00 | 71 | 1009.4 |
| 20260508044547 | 53 | 223 | 6.0 | 10.0 | 0.00 | 0.00 | 0.00 | 67 | 1008.4 |
| 20260508043043 | 53 | 183 | 4.0 | 6.0 | 0.00 | 0.00 | 0.00 | 69 | 1008.2 |
| 20260508041542 | 53 | 254 | 2.0 | 4.0 | 0.00 | 0.00 | 0.00 | 67 | 1007.9 |
| 20260508040052 | 55 | 254 | 3.0 | 5.0 | 0.00 | 0.00 | 0.00 | 59 | 1008.3 |
| 20260508034545 | 56 | 250 | 9.0 | 24.0 | 0.00 | 0.00 | 0.00 | 56 | 1008.5 |
| 20260508033042 | 58 | 302 | 19.0 | 27.0 | 0.00 | 0.00 | 0.00 | 52 | 1008.1 |
| 20260508031539 | 56 | 355 | 8.0 | 20.0 | 0.00 | 0.00 | 0.00 | 57 | 1007.9 |
| 20260508030041 | 54 | 5 | 8.0 | 15.0 | 0.00 | 0.00 | 0.00 | 66 | 1007.8 |
| 20260508024539 | 54 | 46 | 9.0 | 14.0 | 0.00 | 0.00 | 0.00 | 65 | 1007.3 |
| 20260508023038 | 55 | 22 | 12.0 | 20.0 | 0.00 | 0.00 | 0.00 | 64 | 1007.5 |
| 20260508021538 | 58 | 17 | 8.0 | 15.0 | 0.00 | 0.00 | 0.00 | 54 | 1007.7 |
| 20260508020038 | 59 | 25 | 9.0 | 13.0 | 0.00 | 0.00 | 0.00 | 49 | 1007.3 |
| 20260508014537 | 60 | 340 | 6.0 | 11.0 | 0.00 | 0.00 | 0.00 | 47 | 1007.5 |
| 20260508013037 | 60 | 329 | 7.0 | 10.0 | 0.00 | 0.00 | 0.00 | 47 | 1007.1 |
| 20260508011537 | 61 | 300 | 6.0 | 9.0 | 0.00 | 0.00 | 0.00 | 47 | 1006.8 |
| 20260508010035 | 61 | 296 | 7.0 | 13.0 | 0.00 | 0.00 | 0.00 | 46 | 1006.7 |
| 20260508004534 | 61 | 298 | 12.0 | 17.0 | 0.00 | 0.00 | 0.00 | 46 | 1006.7 |
| 20260508003033 | 59 | 306 | 11.0 | 23.0 | 0.00 | 0.00 | 0.00 | 49 | 1006.9 |
| 20260508001532 | 59 | 310 | 29.0 | 38.0 | 0.00 | 0.00 | 0.00 | 46 | 1007.5 |
| 20260508000034 | 60 | 322 | 18.0 | 29.0 | 0.00 | 0.00 | 0.00 | 46 | 1007.1 |
| 20260507234543 | 63 | 360 | 13.0 | 25.0 | 0.00 | 0.00 | 0.00 | 38 | 1006.8 |
| 20260507233033 | 64 | 327 | 12.0 | 20.0 | 0.00 | 0.00 | 0.00 | 37 | 1006.9 |
| 20260507231530 | 65 | 308 | 14.0 | 21.0 | 0.00 | 0.00 | 0.00 | 38 | 1006.9 |
| 20260507230030 | 65 | 338 | 14.0 | 25.0 | 0.00 | 0.00 | 0.00 | 34 | 1007.0 |
| 20260507224529 | 66 | 328 | 16.0 | 22.0 | 0.00 | 0.00 | 0.00 | 32 | 1007.0 |
| 20260507223027 | 67 | 355 | 7.0 | 16.0 | 0.00 | 0.00 | 0.00 | 34 | 1007.0 |
| 20260507221532 | 69 | 272 | 8.0 | 19.0 | 0.00 | 0.00 | 0.00 | 30 | 1007.1 |
| 20260507220034 | 68 | 13 | 11.0 | 16.0 | 0.00 | 0.00 | 0.00 | 34 | 1007.3 |
| 20260507214521 | 69 | 315 | 7.0 | 15.0 | 0.00 | 0.00 | 0.00 | 29 | 1007.8 |
| 20260507213027 | 69 | 278 | 8.0 | 21.0 | 0.00 | 0.00 | 0.00 | 29 | 1008.0 |
| 20260507211518 | 69 | 252 | 6.0 | 18.0 | 0.00 | 0.00 | 0.00 | 32 | 1008.3 |
| 20260507210018 | 70 | 262 | 11.0 | 19.0 | 0.00 | 0.00 | 0.00 | 29 | 1008.8 |
| 20260507204511 | 68 | 250 | 13.0 | 20.0 | 0.00 | 0.00 | 0.00 | 31 | 1009.1 |
| 20260507203009 | 69 | 298 | 13.0 | 19.0 | 0.00 | 0.00 | 0.00 | 32 | 1009.4 |
| 20260507201507 | 69 | 294 | 8.0 | 15.0 | 0.00 | 0.00 | 0.00 | 32 | 1009.6 |
| 20260507200007 | 68 | 273 | 5.0 | 15.0 | 0.00 | 0.00 | 0.00 | 34 | 1009.9 |
| 20260507194504 | 69 | 286 | 3.0 | 8.0 | 0.00 | 0.00 | 0.00 | 30 | 1010.1 |
| 20260507193100 | 68 | 16 | 3.0 | 12.0 | 0.00 | 0.00 | 0.00 | 31 | 1010.2 |
| 20260507191603 | 68 | 5 | 4.0 | 8.0 | 0.00 | 0.00 | 0.00 | 39 | 1010.5 |
| 20260507190107 | 70 | 200 | 5.0 | 14.0 | 0.00 | 0.00 | 0.00 | 29 | 1010.7 |
| 20260507184555 | 69 | 209 | 6.0 | 16.0 | 0.00 | 0.00 | 0.00 | 31 | 1011.0 |
| 20260507183111 | 66 | 149 | 1.0 | 8.0 | 0.00 | 0.00 | 0.00 | 31 | 1011.3 |
| 20260507181556 | 66 | 142 | 4.0 | 9.0 | 0.00 | 0.00 | 0.00 | 33 | 1011.5 |
| 20260507180046 | 67 | 254 | 5.0 | 9.0 | 0.00 | 0.00 | 0.00 | 34 | 1012.0 |
| 20260507174545 | 66 | 159 | 8.0 | 14.0 | 0.00 | 0.05 | 0.00 | 32 | 1012.0 |
| 20260507173046 | 65 | 196 | 2.0 | 8.0 | 0.00 | 0.05 | 0.00 | 35 | 1012.5 |
| 20260507171535 | 64 | 150 | 2.0 | 11.0 | 0.00 | 0.05 | 0.00 | 33 | 1012.7 |
| 20260507170031 | 63 | 180 | 1.0 | 7.0 | 0.00 | 0.14 | 0.00 | 36 | 1013.2 |
| 20260507164535 | 60 | 243 | 4.0 | 9.0 | 0.00 | 0.14 | 0.00 | 37 | 1013.3 |
| 20260507163024 | 58 | 199 | 5.0 | 11.0 | 0.00 | 0.14 | 0.00 | 41 | 1013.4 |
| 20260507161519 | 57 | 263 | 9.0 | 16.0 | 0.00 | 0.14 | 0.00 | 41 | 1013.5 |
| 20260507160019 | 56 | 295 | 12.0 | 18.0 | 0.00 | 0.21 | 0.00 | 42 | 1013.7 |
| 20260507154515 | 56 | 232 | 6.0 | 12.0 | 0.00 | 0.21 | 0.00 | 40 | 1013.9 |
| 20260507153014 | 56 | 279 | 4.0 | 7.0 | 0.00 | 0.21 | 0.00 | 46 | 1014.3 |
| 20260507151513 | 56 | 258 | 3.0 | 9.0 | 0.00 | 0.21 | 0.00 | 44 | 1014.3 |
| 20260507150010 | 55 | 242 | 4.0 | 9.0 | 0.00 | 0.22 | 0.00 | 42 | 1014.3 |